EZY29DJ EGGP-LFPG

Flight info

Callsign EZY29DJ
Flight time 0h 59m
Altitude 37000
Route NANTI L8 STAFA P18 TELBA L151 MID/N0393F290 Y803 SFD UM605 BIBAX
Aircraft A320/M-SDE3FGHIRWY/LB1

Departure

Time 2026-05-05 16:57
Airport Liverpool John Lennon Airport (EGGP)

Arrival

Time 2026-05-05 17:56
Airport Charles de Gaulle International Airport (LFPG)
Time Latitude Longitude Altitude Speed Heading
2026-05-05 16:36 53.33587 -2.85184 88 ft 0 kts 265°
2026-05-05 16:49 53.33588 -2.85164 88 ft 4 kts 265°
2026-05-05 16:50 53.33590 -2.85120 85 ft 3 kts 266°
2026-05-05 16:50 53.33593 -2.85086 87 ft 4 kts 235°
2026-05-05 16:50 53.33611 -2.85068 87 ft 3 kts 176°
2026-05-05 16:50 53.33633 -2.85071 85 ft 1 kts 175°
2026-05-05 16:53 53.33624 -2.85070 85 ft 7 kts 175°
2026-05-05 16:53 53.33577 -2.85063 88 ft 7 kts 175°
2026-05-05 16:53 53.33536 -2.85033 88 ft 6 kts 126°
2026-05-05 16:53 53.33532 -2.84913 85 ft 19 kts 89°
2026-05-05 16:54 53.33542 -2.84626 80 ft 29 kts 86°
2026-05-05 16:54 53.33561 -2.84284 76 ft 27 kts 85°
2026-05-05 16:54 53.33575 -2.83984 77 ft 28 kts 86°
2026-05-05 16:54 53.33588 -2.83678 82 ft 22 kts 87°
2026-05-05 16:55 53.33597 -2.83470 90 ft 10 kts 86°
2026-05-05 16:55 53.33594 -2.83376 89 ft 6 kts 103°
2026-05-05 16:55 53.33543 -2.83302 89 ft 13 kts 162°
2026-05-05 16:55 53.33448 -2.83306 85 ft 13 kts 224°
2026-05-05 16:56 53.33438 -2.83354 85 ft 0 kts 264°
2026-05-05 16:56 53.33433 -2.83447 81 ft 34 kts 265°
2026-05-05 16:56 53.33397 -2.84289 78 ft 108 kts 266°
2026-05-05 16:56 53.33340 -2.85829 279 ft 143 kts 269°
2026-05-05 16:57 53.33270 -2.87502 1010 ft 146 kts 268°
2026-05-05 16:57 53.33170 -2.89255 1556 ft 164 kts 269°
2026-05-05 16:57 53.33040 -2.91344 1820 ft 199 kts 262°
2026-05-05 16:57 53.32398 -2.93546 2355 ft 226 kts 233°
2026-05-05 16:58 53.31057 -2.95065 3018 ft 245 kts 195°
2026-05-05 16:58 53.29305 -2.95045 3638 ft 264 kts 160°
2026-05-05 16:58 53.27758 -2.93382 4511 ft 267 kts 127°
2026-05-05 16:58 53.26947 -2.90647 5549 ft 265 kts 105°
2026-05-05 16:59 53.26462 -2.87677 6637 ft 266 kts 104°
2026-05-05 16:59 53.25902 -2.84707 7543 ft 273 kts 109°
2026-05-05 16:59 53.25049 -2.81817 8373 ft 283 kts 121°
2026-05-05 16:59 53.23889 -2.79099 9223 ft 292 kts 126°
2026-05-05 17:00 53.22649 -2.76351 10045 ft 299 kts 127°
2026-05-05 17:00 53.21227 -2.73692 10505 ft 320 kts 140°
2026-05-05 17:00 53.19451 -2.71261 10984 ft 337 kts 141°
2026-05-05 17:00 53.17638 -2.68719 11777 ft 342 kts 140°
2026-05-05 17:01 53.15819 -2.66127 12666 ft 345 kts 140°
2026-05-05 17:01 53.13978 -2.63494 13424 ft 352 kts 141°
2026-05-05 17:01 53.12111 -2.60826 14190 ft 356 kts 140°
2026-05-05 17:01 53.10230 -2.58149 14995 ft 358 kts 141°
2026-05-05 17:02 53.08325 -2.55439 15743 ft 361 kts 141°
2026-05-05 17:02 53.06432 -2.52750 16445 ft 365 kts 141°
2026-05-05 17:02 53.04467 -2.49970 17203 ft 368 kts 141°
2026-05-05 17:02 53.02531 -2.47238 17917 ft 371 kts 141°
2026-05-05 17:03 53.00550 -2.44453 18581 ft 375 kts 142°
2026-05-05 17:03 52.98543 -2.41649 19199 ft 378 kts 142°
2026-05-05 17:03 52.96525 -2.38829 19841 ft 381 kts 142°
2026-05-05 17:03 52.94493 -2.35991 20496 ft 383 kts 142°
2026-05-05 17:04 52.92448 -2.33133 21135 ft 386 kts 142°
2026-05-05 17:04 52.90374 -2.30298 21779 ft 387 kts 146°
2026-05-05 17:04 52.88058 -2.28039 22406 ft 386 kts 159°
2026-05-05 17:04 52.85515 -2.26640 23022 ft 385 kts 171°
2026-05-05 17:05 52.82852 -2.26148 23650 ft 385 kts 182°
2026-05-05 17:05 52.80196 -2.26566 24148 ft 385 kts 194°
2026-05-05 17:05 52.77579 -2.27567 24635 ft 387 kts 195°
2026-05-05 17:05 52.74941 -2.28589 25094 ft 391 kts 195°
2026-05-05 17:06 52.72312 -2.29601 25567 ft 394 kts 194°
2026-05-05 17:06 52.69588 -2.30181 26031 ft 398 kts 183°
2026-05-05 17:06 52.66807 -2.29870 26474 ft 404 kts 172°
2026-05-05 17:06 52.64086 -2.28633 26906 ft 409 kts 160°
2026-05-05 17:07 52.61534 -2.26496 27341 ft 415 kts 148°
2026-05-05 17:07 52.59128 -2.23845 27775 ft 417 kts 148°
2026-05-05 17:07 52.56706 -2.21181 28208 ft 420 kts 148°
2026-05-05 17:07 52.54268 -2.18515 28625 ft 422 kts 148°
2026-05-05 17:08 52.51811 -2.15840 29034 ft 425 kts 148°
2026-05-05 17:08 52.49338 -2.13152 29440 ft 427 kts 148°
2026-05-05 17:08 52.46857 -2.10457 29888 ft 428 kts 148°
2026-05-05 17:08 52.44369 -2.07762 30251 ft 430 kts 148°
2026-05-05 17:09 52.41861 -2.05052 30572 ft 432 kts 148°
2026-05-05 17:09 52.39344 -2.02330 30875 ft 435 kts 148°
2026-05-05 17:09 52.36814 -1.99588 31171 ft 437 kts 148°
2026-05-05 17:09 52.34277 -1.96839 31467 ft 438 kts 149°
2026-05-05 17:10 52.31730 -1.94085 31829 ft 438 kts 148°
2026-05-05 17:10 52.29190 -1.91346 32242 ft 437 kts 148°
2026-05-05 17:10 52.26652 -1.88617 32616 ft 437 kts 149°
2026-05-05 17:10 52.24117 -1.85901 33031 ft 436 kts 149°
2026-05-05 17:11 52.21584 -1.83191 33425 ft 435 kts 149°
2026-05-05 17:11 52.19048 -1.80479 33810 ft 435 kts 148°
2026-05-05 17:11 52.16513 -1.77770 34156 ft 435 kts 148°
2026-05-05 17:11 52.14012 -1.75098 34451 ft 436 kts 148°
2026-05-05 17:12 52.11478 -1.72394 34749 ft 436 kts 148°
2026-05-05 17:12 52.08940 -1.69690 35040 ft 436 kts 148°
2026-05-05 17:12 52.06400 -1.66991 35327 ft 436 kts 148°
2026-05-05 17:12 52.03855 -1.64288 35603 ft 436 kts 148°
2026-05-05 17:13 52.01316 -1.61588 35884 ft 436 kts 148°
2026-05-05 17:13 51.98780 -1.58894 36181 ft 435 kts 148°
2026-05-05 17:13 51.96246 -1.56211 36437 ft 435 kts 148°
2026-05-05 17:13 51.93701 -1.53524 36703 ft 435 kts 148°
2026-05-05 17:14 51.91163 -1.50854 36914 ft 436 kts 148°
2026-05-05 17:14 51.88619 -1.48182 36981 ft 434 kts 149°
2026-05-05 17:14 51.83606 -1.42926 36968 ft 430 kts 148°
2026-05-05 17:15 51.78593 -1.37678 36969 ft 428 kts 148°
2026-05-05 17:15 51.73604 -1.32461 36975 ft 427 kts 148°
2026-05-05 17:16 51.68622 -1.27253 36974 ft 426 kts 148°
2026-05-05 17:16 51.63635 -1.22059 36971 ft 426 kts 148°
2026-05-05 17:17 51.58648 -1.16886 36977 ft 427 kts 149°
2026-05-05 17:17 51.53654 -1.11734 36977 ft 427 kts 149°
2026-05-05 17:18 51.48647 -1.06569 36969 ft 427 kts 148°
2026-05-05 17:18 51.43690 -1.01453 36970 ft 426 kts 149°
2026-05-05 17:19 51.38682 -0.96317 36966 ft 426 kts 149°
2026-05-05 17:19 51.33680 -0.91204 36938 ft 426 kts 149°
2026-05-05 17:20 51.28680 -0.86100 36945 ft 426 kts 148°
2026-05-05 17:20 51.23695 -0.81010 36949 ft 426 kts 148°
2026-05-05 17:21 51.18682 -0.75916 36956 ft 426 kts 148°
2026-05-05 17:22 51.11164 -0.68323 36953 ft 426 kts 149°
2026-05-05 17:22 51.06315 -0.62903 36951 ft 427 kts 138°
2026-05-05 17:23 51.03189 -0.56833 36946 ft 430 kts 123°
2026-05-05 17:23 51.00067 -0.48731 36949 ft 430 kts 123°
2026-05-05 17:24 50.96925 -0.40675 36944 ft 430 kts 123°
2026-05-05 17:24 50.93766 -0.32619 36948 ft 430 kts 123°
2026-05-05 17:25 50.90606 -0.24572 36946 ft 430 kts 123°
2026-05-05 17:25 50.87440 -0.16526 36952 ft 430 kts 123°
2026-05-05 17:26 50.84274 -0.08497 36947 ft 430 kts 123°
2026-05-05 17:26 50.81107 -0.00481 36943 ft 430 kts 123°
2026-05-05 17:27 50.77930 0.07523 36932 ft 429 kts 124°
2026-05-05 17:27 50.74124 0.14684 36933 ft 425 kts 141°
2026-05-05 17:28 50.69567 0.20533 36933 ft 425 kts 142°
2026-05-05 17:28 50.64969 0.26411 36929 ft 425 kts 142°
2026-05-05 17:29 50.60367 0.32276 36931 ft 426 kts 142°
2026-05-05 17:29 50.55750 0.38148 36912 ft 427 kts 142°
2026-05-05 17:30 50.51115 0.44037 36554 ft 431 kts 142°
2026-05-05 17:30 50.48775 0.47001 35793 ft 432 kts 142°
2026-05-05 17:30 50.46432 0.49960 34921 ft 434 kts 142°
2026-05-05 17:30 50.44076 0.52931 34220 ft 432 kts 142°
2026-05-05 17:31 50.41748 0.55865 33632 ft 427 kts 141°
2026-05-05 17:31 50.39451 0.58755 33066 ft 419 kts 141°
2026-05-05 17:31 50.37187 0.61601 32405 ft 416 kts 141°
2026-05-05 17:31 50.34942 0.64423 31762 ft 413 kts 141°
2026-05-05 17:32 50.32712 0.67225 31088 ft 410 kts 142°
2026-05-05 17:32 50.30508 0.69993 30273 ft 412 kts 142°
2026-05-05 17:32 50.28254 0.72821 29612 ft 408 kts 142°
2026-05-05 17:32 50.26048 0.75583 28956 ft 404 kts 142°
2026-05-05 17:33 50.23868 0.78311 28328 ft 399 kts 142°
2026-05-05 17:33 50.21703 0.81009 27652 ft 397 kts 142°
2026-05-05 17:33 50.19572 0.83660 27181 ft 397 kts 142°
2026-05-05 17:33 50.17400 0.86362 26698 ft 400 kts 142°
2026-05-05 17:34 50.15234 0.89058 26200 ft 397 kts 141°
2026-05-05 17:34 50.13071 0.91747 25694 ft 398 kts 141°
2026-05-05 17:34 50.10910 0.94422 25178 ft 396 kts 141°
2026-05-05 17:34 50.08765 0.97069 24663 ft 392 kts 141°
2026-05-05 17:35 50.06628 0.99695 24131 ft 390 kts 142°
2026-05-05 17:35 50.04318 1.01880 23638 ft 389 kts 153°
2026-05-05 17:35 50.01875 1.03715 23202 ft 389 kts 153°
2026-05-05 17:35 49.99445 1.05545 22789 ft 387 kts 153°
2026-05-05 17:36 49.97028 1.07366 22372 ft 386 kts 153°
2026-05-05 17:36 49.94621 1.09182 21951 ft 383 kts 153°
2026-05-05 17:36 49.92234 1.10983 21539 ft 379 kts 153°
2026-05-05 17:36 49.89868 1.12761 21134 ft 377 kts 153°
2026-05-05 17:37 49.87517 1.14524 20732 ft 375 kts 153°
2026-05-05 17:37 49.85175 1.16277 20323 ft 371 kts 153°
2026-05-05 17:37 49.82880 1.17994 19931 ft 369 kts 153°
2026-05-05 17:37 49.80572 1.19720 19536 ft 367 kts 153°
2026-05-05 17:38 49.78276 1.21436 19140 ft 366 kts 153°
2026-05-05 17:38 49.75984 1.23148 18748 ft 364 kts 153°
2026-05-05 17:38 49.73706 1.24844 18356 ft 363 kts 153°
2026-05-05 17:38 49.71434 1.26532 17935 ft 361 kts 153°
2026-05-05 17:39 49.69176 1.28208 17536 ft 359 kts 153°
2026-05-05 17:39 49.66927 1.29880 17154 ft 358 kts 153°
2026-05-05 17:39 49.64693 1.31537 16767 ft 355 kts 153°
2026-05-05 17:39 49.62479 1.33176 16383 ft 353 kts 152°
2026-05-05 17:40 49.60275 1.34803 16013 ft 349 kts 152°
2026-05-05 17:40 49.58084 1.36423 15637 ft 348 kts 152°
2026-05-05 17:40 49.55902 1.38037 15264 ft 347 kts 152°
2026-05-05 17:40 49.53729 1.39639 14887 ft 346 kts 152°
2026-05-05 17:41 49.51564 1.41234 14526 ft 344 kts 152°
2026-05-05 17:41 49.49412 1.42818 14153 ft 342 kts 152°
2026-05-05 17:41 49.47257 1.44405 13790 ft 341 kts 152°
2026-05-05 17:41 49.45122 1.45976 13393 ft 339 kts 152°
2026-05-05 17:42 49.42992 1.47540 13024 ft 338 kts 152°
2026-05-05 17:42 49.40898 1.49073 12663 ft 337 kts 152°
2026-05-05 17:42 49.38788 1.50618 12304 ft 336 kts 152°
2026-05-05 17:42 49.36680 1.52161 11945 ft 335 kts 152°
2026-05-05 17:43 49.34572 1.53708 11581 ft 334 kts 152°
2026-05-05 17:43 49.32558 1.55418 11226 ft 329 kts 139°
2026-05-05 17:43 49.30888 1.57791 10872 ft 326 kts 132°
2026-05-05 17:43 49.29289 1.60254 10525 ft 326 kts 132°
2026-05-05 17:44 49.27702 1.62716 10186 ft 324 kts 132°
2026-05-05 17:44 49.26120 1.65172 9846 ft 324 kts 132°
2026-05-05 17:44 49.24540 1.67618 9480 ft 323 kts 132°
2026-05-05 17:44 49.22962 1.70058 9109 ft 321 kts 132°
2026-05-05 17:45 49.21393 1.72484 8736 ft 320 kts 132°
2026-05-05 17:45 49.19835 1.74887 8370 ft 315 kts 132°
2026-05-05 17:45 49.18310 1.77232 8017 ft 307 kts 132°
2026-05-05 17:45 49.16830 1.79530 7693 ft 299 kts 132°
2026-05-05 17:46 49.15387 1.81769 7390 ft 291 kts 132°
2026-05-05 17:46 49.13982 1.83938 7086 ft 284 kts 132°
2026-05-05 17:46 49.12605 1.86063 6791 ft 279 kts 132°
2026-05-05 17:46 49.11263 1.88127 6507 ft 276 kts 132°
2026-05-05 17:47 49.09921 1.90184 6257 ft 269 kts 132°
2026-05-05 17:47 49.08726 1.92319 6004 ft 259 kts 123°
2026-05-05 17:47 49.07690 1.94522 5741 ft 252 kts 121°
2026-05-05 17:47 49.06688 1.96679 5485 ft 247 kts 122°
2026-05-05 17:48 49.05710 1.98797 5228 ft 241 kts 122°
2026-05-05 17:48 49.04763 2.00855 4975 ft 234 kts 122°
2026-05-05 17:48 49.03922 2.02902 4818 ft 221 kts 114°
2026-05-05 17:48 49.03261 2.04935 4691 ft 209 kts 112°
2026-05-05 17:49 49.02644 2.06889 4564 ft 200 kts 112°
2026-05-05 17:49 49.02071 2.08783 4428 ft 194 kts 106°
2026-05-05 17:49 49.01649 2.10729 4301 ft 193 kts 102°
2026-05-05 17:49 49.01269 2.12674 4173 ft 191 kts 102°
2026-05-05 17:50 49.00886 2.14615 4075 ft 191 kts 102°
2026-05-05 17:50 49.00557 2.16557 3997 ft 186 kts 88°
2026-05-05 17:50 49.00598 2.18504 4018 ft 179 kts 82°
2026-05-05 17:50 49.00686 2.20299 4035 ft 162 kts 82°
2026-05-05 17:51 49.00779 2.21974 4017 ft 161 kts 81°
2026-05-05 17:51 49.00876 2.23686 3992 ft 163 kts 80°
2026-05-05 17:51 49.00974 2.25411 3876 ft 164 kts 81°
2026-05-05 17:51 49.01070 2.27132 3693 ft 162 kts 80°
2026-05-05 17:52 49.01166 2.28835 3490 ft 160 kts 82°
2026-05-05 17:52 49.01261 2.30529 3279 ft 161 kts 81°
2026-05-05 17:52 49.01356 2.32224 3072 ft 160 kts 79°
2026-05-05 17:52 49.01452 2.33924 2854 ft 163 kts 81°
2026-05-05 17:53 49.01547 2.35635 2636 ft 161 kts 81°
2026-05-05 17:53 49.01639 2.37318 2415 ft 156 kts 81°
2026-05-05 17:53 49.01726 2.38899 2221 ft 143 kts 81°
2026-05-05 17:53 49.01806 2.40350 2026 ft 134 kts 80°
2026-05-05 17:54 49.01882 2.41723 1851 ft 130 kts 79°
2026-05-05 17:54 49.01957 2.43088 1666 ft 128 kts 78°
2026-05-05 17:54 49.02032 2.44447 1494 ft 128 kts 79°
2026-05-05 17:54 49.02107 2.45802 1327 ft 128 kts 79°
2026-05-05 17:55 49.02181 2.47163 1137 ft 130 kts 82°
2026-05-05 17:55 49.02257 2.48542 945 ft 131 kts 81°
2026-05-05 17:55 49.02329 2.49931 777 ft 132 kts 82°
2026-05-05 17:55 49.02406 2.51329 581 ft 132 kts 78°
2026-05-05 17:56 49.02482 2.52724 385 ft 131 kts 80°
2026-05-05 17:56 49.02551 2.53968 362 ft 96 kts 85°
2026-05-05 17:56 49.02593 2.54699 353 ft 39 kts 86°
2026-05-05 17:56 49.02607 2.55070 359 ft 32 kts 98°
2026-05-05 17:57 49.02545 2.55369 359 ft 28 kts 112°
2026-05-05 17:57 49.02479 2.55568 357 ft 17 kts 129°
2026-05-05 17:57 49.02375 2.55615 355 ft 14 kts 175°
2026-05-05 17:57 49.02285 2.55626 360 ft 13 kts 176°
2026-05-05 17:58 49.02207 2.55633 354 ft 9 kts 177°
2026-05-05 17:58 49.02151 2.55638 362 ft 13 kts 176°
2026-05-05 17:58 49.02070 2.55601 358 ft 7 kts 258°
2026-05-05 17:58 49.02062 2.55455 359 ft 21 kts 264°
2026-05-05 17:59 49.02049 2.55226 354 ft 15 kts 266°
2026-05-05 17:59 49.02018 2.55079 361 ft 15 kts 209°
2026-05-05 17:59 49.01927 2.55091 355 ft 15 kts 169°
2026-05-05 17:59 49.01789 2.55125 355 ft 23 kts 171°
2026-05-05 18:00 49.01675 2.55144 355 ft 27 kts 175°
2026-05-05 18:00 49.01402 2.55195 355 ft 28 kts 166°
2026-05-05 18:00 49.01223 2.55174 357 ft 25 kts 195°
2026-05-05 18:00 49.01059 2.55205 355 ft 23 kts 164°
2026-05-05 18:01 49.00911 2.55269 361 ft 21 kts 164°
2026-05-05 18:01 49.00778 2.55327 361 ft 19 kts 161°
2026-05-05 18:01 49.00729 2.55472 355 ft 16 kts 85°
2026-05-05 18:01 49.00740 2.55627 361 ft 15 kts 85°
2026-05-05 18:02 49.00753 2.55799 357 ft 18 kts 82°
2026-05-05 18:02 49.00769 2.56001 358 ft 20 kts 82°
2026-05-05 18:02 49.00790 2.56223 355 ft 21 kts 79°
2026-05-05 18:02 49.00812 2.56408 358 ft 15 kts 90°
2026-05-05 18:03 49.00738 2.56461 355 ft 12 kts 178°
2026-05-05 18:03 49.00670 2.56465 355 ft 8 kts 177°
2026-05-05 18:03 49.00625 2.56402 359 ft 14 kts 258°
2026-05-05 18:03 49.00618 2.56258 355 ft 13 kts 265°
2026-05-05 18:04 49.00608 2.56107 355 ft 14 kts 260°
2026-05-05 18:04 49.00575 2.56019 355 ft 8 kts 191°
2026-05-05 18:04 49.00531 2.56040 360 ft 4 kts 158°
2026-05-05 18:04 49.00514 2.56051 356 ft 0 kts 157°
2026-05-05 18:05 49.00513 2.56052 356 ft 0 kts 157°